Terminal Aerodrome Forecast
Issued by NWS Tampa Bay Area, FL

Home | Current Version | Previous Version | Text Only | Print | Product List | Glossary On
Versions: 1 2 3 4 5 6 7 8 9 10 11 12 13 14 15 16 17 18 19 20 21 22 23 24 25 26 27 28
000
FTUS42 KTBW 021141
TAFTPA
TAF
KTPA 021141Z 0212/0312 16005KT P6SM FEW015 BKN250
     FM021500 22007KT P6SM VCTS SCT025CB SCT250
     FM022000 27007KT P6SM SCT040 BKN250
     FM030100 VRB03KT P6SM SCT250=

USA.gov is the U.S. government's official web portal to all federal, state and local government web resources and services.